Santa Fe, NM

9:02 PM MST on December 04, 2016 (GMT -0700)
Santa Fe Municipal

Weather History for KSAF - October, 2012

Change the Weather History Date:

Sunday, October 14, 2012

  Actual Average Record
Temperature  
Mean Temperature 52 °F -  
Max Temperature 68 °F 66 °F 81 °F (2015)
Min Temperature 37 °F 29 °F 27 °F (1978)
Degree Days  
Heating Degree Days 12    
Growing Degree Days 2 (Base 50)    
Moisture  
Dew Point 31 °F    
Average Humidity 51    
Maximum Humidity 86    
Minimum Humidity 21    
Precipitation  
Precipitation 0.00 in - - ()
Sea Level Pressure  
Sea Level Pressure 30.17 in    
Wind  
Wind Speed 8 mph (NNW)    
Max Wind Speed 16 mph    
Max Gust Speed 21 mph    
Visibility 10 miles    
Events      
Averages and records for this station are not official NWS values.
T = Trace of Precipitation, MM = Missing Value Source: NWS Daily Summary

Daily Weather History Graph

Daily Weather History Graph

Search for Another Location

Airport or City:

Trip Planner

Search our weather history database for the weather conditions in past years. The results will help you decide how hot, cold, wet, or windy it might be!

Date:

Astronomy

Oct. 14, 2012 Rise Set
Actual Time 7:10 AM MDT 6:29 PM MDT
Civil Twilight 6:44 AM MDT 6:55 PM MDT
Nautical Twilight 6:15 AM MDT 7:24 PM MDT
Astronomical Twilight 5:45 AM MDT 7:54 PM MDT
Moon 6:13 AM MDT (10/14) 5:51 PM MDT (10/14)
Length of Visible Light 12h 10m
Length of Day
11h 19m
Waning Crescent, 1% of the Moon is Illuminated
Oct 14
Waning Crescent
Oct 15
New
Oct 21
First Quarter
Oct 29
Full
Nov 6
Last Quarter

Hourly Weather History & Observations

Time (MDT) Temp. Windchill Dew Point Humidity Pressure Visibility Wind Dir Wind Speed Gust Speed Precip Events Conditions
12:53 AM 43.0 °F 40.3 °F 35.1 °F 74% 30.12 in 10.0 mi North 4.6 mph - N/A   Clear
1:53 AM 43.0 °F 37.2 °F 35.1 °F 74% 30.11 in 10.0 mi North 10.4 mph - N/A   Clear
2:53 AM 44.1 °F 37.7 °F 35.1 °F 71% 30.12 in 10.0 mi North 12.7 mph - N/A   Clear
3:53 AM 43.0 °F 36.0 °F 35.1 °F 74% 30.12 in 10.0 mi North 13.8 mph - N/A   Clear
4:53 AM 42.1 °F 34.9 °F 34.0 °F 73% 30.16 in 10.0 mi North 13.8 mph - N/A   Clear
5:53 AM 41.0 °F 35.8 °F 34.0 °F 76% 30.20 in 10.0 mi NNE 8.1 mph - N/A   Clear
6:53 AM 37.0 °F 34.5 °F 33.1 °F 86% 30.25 in 10.0 mi North 3.5 mph - N/A   Clear
7:53 AM 39.9 °F 37.8 °F 34.0 °F 79% 30.26 in 10.0 mi North 3.5 mph - N/A   Clear
8:53 AM 46.0 °F 42.5 °F 35.1 °F 66% 30.26 in 10.0 mi NNE 6.9 mph - N/A   Clear
9:53 AM 51.1 °F - 35.1 °F 54% 30.26 in 10.0 mi North 11.5 mph - N/A   Clear
10:53 AM 55.9 °F - 35.1 °F 45% 30.26 in 10.0 mi North 16.1 mph 20.7 mph N/A   Clear
11:53 AM 61.0 °F - 35.1 °F 38% 30.21 in 10.0 mi North 13.8 mph - N/A   Clear
12:53 PM 64.9 °F - 30.9 °F 28% 30.18 in 10.0 mi NW 5.8 mph - N/A   Clear
2:53 PM 68.0 °F - 26.1 °F 21% 30.11 in 10.0 mi SW 8.1 mph - N/A   Clear
3:53 PM 66.9 °F - 27.0 °F 22% 30.10 in 10.0 mi West 9.2 mph - N/A   Clear
4:53 PM 66.9 °F - 26.1 °F 21% 30.09 in 10.0 mi WSW 10.4 mph - N/A   Clear
5:53 PM 64.9 °F - 24.1 °F 21% 30.10 in 10.0 mi SW 10.4 mph - N/A   Clear
6:53 PM 57.9 °F - 26.1 °F 30% 30.15 in 10.0 mi West 5.8 mph - N/A   Clear
7:53 PM 57.9 °F - 28.0 °F 32% 30.16 in 10.0 mi Calm Calm - N/A   Clear
8:53 PM 54.0 °F - 28.0 °F 37% 30.15 in 10.0 mi Calm Calm - N/A   Clear
9:53 PM 53.1 °F - 28.9 °F 40% 30.14 in 10.0 mi NE 4.6 mph - N/A   Clear
10:53 PM 44.1 °F - 28.9 °F 55% 30.16 in 10.0 mi Calm Calm - N/A   Clear
11:53 PM 42.1 °F 39.2 °F 28.9 °F 60% 30.15 in 10.0 mi South 4.6 mph - N/A   Clear